Waarnemingen

Advertentie
Mijn weer
Koblenz/Falkensteinkaserne, Duitsland (10516): temperatuur & dauwpunt: 19.02.2018 20:00:00 - 25.02.2018 20:00:00 (CET)Koblenz/Falkensteinkaserne, Duitsland (10516): windsnelheid: 19.02.2018 20:00:00 - 25.02.2018 20:00:00 (CET)Koblenz/Falkensteinkaserne, Duitsland (10516): windrichting: 19.02.2018 20:00:00 - 25.02.2018 20:00:00 (CET)Koblenz/Falkensteinkaserne, Duitsland (10516): luchtdruk: 19.02.2018 20:00:00 - 25.02.2018 20:00:00 (CET)Koblenz/Falkensteinkaserne, Duitsland (10516): zicht: 19.02.2018 20:00:00 - 25.02.2018 20:00:00 (CET)
Datum & Tijd tt [°C] td [°C] ff [km/u] ff [kn] dd ppp [hPa] vv [km]
25.02.2018 20:00:00 -2,0 -19,5 11 6 NO 1027,6 -
25.02.2018 19:00:00 -1,7 -19,2 11 6 ONO 1027,5 -
25.02.2018 18:00:00 -1,1 -18,4 11 6 NO 1027,2 -
25.02.2018 17:00:00 -0,4 -18,6 14 8 ONO 1026,7 -
25.02.2018 16:00:00 -0,1 -18,4 11 6 ONO 1027,0 -
25.02.2018 15:00:00 -0,3 -20,3 14 8 ONO 1027,2 -
25.02.2018 14:00:00 -0,7 -19,7 14 8 ONO 1028,0 -
25.02.2018 13:00:00 -1,5 -17,2 11 6 ONO 1028,6 -
25.02.2018 12:00:00 -2,4 -16,4 14 8 ONO 1029,2 -
25.02.2018 11:00:00 -3,1 -15,2 14 8 ONO 1029,5 -
25.02.2018 10:00:00 -3,9 -14,8 14 8 O 1029,6 -
25.02.2018 09:00:00 -5,0 -14,6 11 6 O 1029,4 -
25.02.2018 08:00:00 -5,8 -14,1 7 4 O 1029,4 -
25.02.2018 07:00:00 -5,8 -13,9 11 6 O 1029,2 -
25.02.2018 06:00:00 -5,4 -13,4 7 4 O 1028,6 -
25.02.2018 05:00:00 -4,8 -13,3 7 4 ONO 1028,1 -
25.02.2018 04:00:00 -4,2 -13,4 11 6 O 1027,5 -
25.02.2018 03:00:00 -3,6 -13,4 14 8 O 1027,5 -
25.02.2018 02:00:00 -3,1 -13,2 11 6 O 1027,2 -
25.02.2018 01:00:00 -2,5 -13,0 11 6 O 1027,4 -
25.02.2018 00:00:00 -2,0 -13,2 18 10 O 1026,9 -
24.02.2018 23:00:00 -1,5 -13,4 14 8 O 1026,7 -
24.02.2018 22:00:00 -1,0 -12,9 14 8 O 1026,3 -
24.02.2018 21:00:00 -0,6 -12,8 14 8 ONO 1025,9 -
24.02.2018 20:00:00 -0,2 -11,1 11 6 O 1025,5 -
24.02.2018 19:00:00 -0,2 -10,9 11 6 ONO 1025,3 -
24.02.2018 18:00:00 0,3 -11,3 14 8 O 1025,1 -
24.02.2018 17:00:00 1,4 -10,9 18 10 O 1024,4 -
24.02.2018 16:00:00 2,5 -9,3 18 10 ONO 1024,1 -
24.02.2018 15:00:00 2,9 -8,9 18 10 ONO 1023,7 -
24.02.2018 14:00:00 2,9 -11,0 18 10 O 1023,6 -
24.02.2018 13:00:00 2,5 -12,4 18 10 O 1024,0 -
24.02.2018 12:00:00 1,8 -12,7 14 8 ONO 1024,0 -
24.02.2018 11:00:00 0,4 -14,0 14 8 O 1024,2 -
24.02.2018 10:00:00 -1,2 -14,6 14 8 O 1024,0 -
24.02.2018 09:00:00 -2,6 -14,6 11 6 OZO 1024,0 -
24.02.2018 08:00:00 -4,0 -14,0 11 6 O 1023,6 -
24.02.2018 07:00:00 -4,5 -13,4 7 4 O 1023,3 -
24.02.2018 06:00:00 -4,3 -13,2 11 6 O 1022,9 -
24.02.2018 05:00:00 -4,2 -13,0 11 6 O 1022,8 -
24.02.2018 04:00:00 -3,9 -12,7 11 6 O 1022,5 -
24.02.2018 03:00:00 -3,6 -12,1 11 6 O 1022,5 -
24.02.2018 02:00:00 -3,4 -11,8 11 6 ONO 1022,5 -
24.02.2018 01:00:00 -2,9 -11,6 7 4 O 1022,4 -
24.02.2018 00:00:00 -2,4 -11,5 11 6 O 1022,0 -
23.02.2018 23:00:00 -1,8 -12,1 7 4 O 1021,7 -
23.02.2018 22:00:00 -1,1 -13,4 7 4 O 1021,5 -
23.02.2018 21:00:00 -0,4 -14,4 11 6 O 1021,3 -
23.02.2018 20:00:00 0,5 -14,9 11 6 O 1020,9 -
23.02.2018 19:00:00 1,0 -13,8 11 6 ONO 1020,5 30
23.02.2018 18:00:00 1,7 -13,4 14 8 O 1020,2 30
23.02.2018 17:00:00 2,3 -13,4 14 8 NO 1019,8 30
23.02.2018 16:00:00 2,7 -12,8 14 8 ONO 1019,9 30
23.02.2018 15:00:00 2,7 -11,9 11 6 O 1020,1 30
23.02.2018 14:00:00 2,0 -12,2 18 10 ONO 1020,8 30
23.02.2018 13:00:00 1,2 -12,3 18 10 O 1021,5 40
23.02.2018 12:00:00 0,1 -12,6 25 14 O 1022,0 40
23.02.2018 11:00:00 -0,2 -12,3 14 8 O 1022,2 40
23.02.2018 10:00:00 -0,7 -12,2 11 6 O 1022,1 40
23.02.2018 09:00:00 -1,7 -12,1 7 4 O 1021,9 40
23.02.2018 08:00:00 -2,3 -11,8 11 6 ONO 1022,0 40
23.02.2018 07:00:00 -2,1 -11,8 11 6 ONO 1021,6 40
23.02.2018 06:00:00 -1,7 -11,0 11 6 O 1021,2 -
23.02.2018 05:00:00 -1,4 -10,2 14 8 ONO 1021,1 -
23.02.2018 04:00:00 -1,2 -10,2 11 6 O 1021,1 -
23.02.2018 03:00:00 -0,9 -10,0 11 6 ONO 1021,5 -
23.02.2018 02:00:00 -0,7 -9,6 11 6 ONO 1021,7 -
23.02.2018 01:00:00 -0,5 -9,4 11 6 ONO 1022,1 -
23.02.2018 00:00:00 -0,3 -9,4 7 4 NO 1022,2 -
22.02.2018 23:00:00 0,0 -9,2 11 6 ONO 1022,3 -
22.02.2018 22:00:00 0,2 -9,1 11 6 ONO 1022,3 -
22.02.2018 21:00:00 0,3 -9,1 7 4 NO 1022,0 30
22.02.2018 20:00:00 0,9 -9,4 11 6 NO 1022,0 30
22.02.2018 19:00:00 1,3 -9,3 7 4 NO 1021,6 30
22.02.2018 18:00:00 2,1 -9,5 14 8 ONO 1021,1 30
22.02.2018 17:00:00 2,8 -9,2 11 6 NO 1020,9 30
22.02.2018 16:00:00 3,2 -9,0 14 8 NO 1020,9 30
22.02.2018 15:00:00 3,2 -8,5 14 8 NO 1021,2 30
22.02.2018 14:00:00 3,0 -8,7 22 12 NO 1021,9 30
22.02.2018 13:00:00 3,5 -8,0 14 8 O 1022,3 25
22.02.2018 12:00:00 2,5 -8,2 14 8 ONO 1022,7 25
22.02.2018 11:00:00 1,8 -8,0 18 10 O 1023,2 25
22.02.2018 10:00:00 1,3 -7,1 14 8 ONO 1023,2 20
22.02.2018 09:00:00 0,3 -7,3 11 6 ONO 1023,3 20
22.02.2018 08:00:00 -0,4 -6,9 11 6 O 1023,0 20
22.02.2018 07:00:00 -1,2 -7,0 4 2 NNW 1022,7 20
22.02.2018 06:00:00 -0,9 -6,9 4 2 ONO 1022,7 -
22.02.2018 05:00:00 -0,4 -6,9 7 4 ONO 1022,5 -
22.02.2018 04:00:00 -0,2 -6,7 11 6 O 1022,5 -
22.02.2018 03:00:00 -0,2 -6,8 7 4 O 1022,9 -
22.02.2018 02:00:00 -0,8 -7,3 4 2 NW 1023,2 -
22.02.2018 01:00:00 -0,5 -7,0 4 2 ZZW 1023,7 -
22.02.2018 00:00:00 0,3 -7,1 7 4 O 1023,7 -
21.02.2018 23:00:00 0,9 -7,2 14 8 O 1023,7 -
21.02.2018 22:00:00 1,6 -6,3 7 4 O 1023,5 -
21.02.2018 21:00:00 2,5 -6,4 7 4 ONO 1023,3 15
21.02.2018 20:00:00 3,3 -7,0 11 6 NO 1022,8 15
21.02.2018 19:00:00 4,2 -7,7 7 4 ONO 1022,6 15
21.02.2018 18:00:00 5,4 -8,1 7 4 O 1022,0 18
21.02.2018 17:00:00 6,1 -8,0 11 6 N 1021,8 18
21.02.2018 16:00:00 6,3 -8,3 14 8 N 1021,9 18
21.02.2018 15:00:00 6,4 -7,9 11 6 N 1022,4 20
21.02.2018 14:00:00 5,8 -7,8 11 6 N 1022,8 12
21.02.2018 13:00:00 5,1 -8,4 11 6 NO 1023,4 9
21.02.2018 12:00:00 3,6 -6,3 7 4 NW 1023,8 8
21.02.2018 11:00:00 2,0 -5,6 7 4 NNO 1024,1 8
21.02.2018 10:00:00 0,5 -4,6 7 4 NNW 1024,9 8
21.02.2018 09:00:00 -1,4 -4,7 7 4 WNW 1024,6 8
21.02.2018 08:00:00 -2,6 -5,2 4 2 N 1024,1 8
21.02.2018 07:00:00 -2,1 -5,1 7 4 NNW 1024,0 8
21.02.2018 06:00:00 -1,8 -5,3 7 4 NNW 1023,6 -
21.02.2018 05:00:00 -1,1 -5,2 7 4 WNW 1023,1 -
21.02.2018 04:00:00 0,0 -5,2 4 2 NNW 1023,4 -
21.02.2018 03:00:00 -0,1 -6,0 4 2 N 1023,0 -
21.02.2018 02:00:00 0,9 -6,0 7 4 O 1022,6 -
21.02.2018 01:00:00 1,5 -5,3 11 6 ONO 1022,0 -
21.02.2018 00:00:00 1,2 -4,3 7 4 O 1021,5 -
20.02.2018 23:00:00 -0,1 -5,0 4 2 NO 1020,9 -
20.02.2018 22:00:00 1,0 -4,8 4 2 N 1020,5 -
20.02.2018 21:00:00 1,5 -5,2 4 2 NO 1020,2 15
20.02.2018 20:00:00 3,0 -4,7 7 4 O 1019,7 15
20.02.2018 19:00:00 4,1 -4,4 7 4 N 1018,7 15
20.02.2018 18:00:00 5,2 -5,1 7 4 N 1017,9 18
20.02.2018 17:00:00 5,7 -5,1 11 6 N 1017,4 18
20.02.2018 16:00:00 6,1 -3,9 7 4 N 1017,1 15
20.02.2018 15:00:00 5,3 -4,1 7 4 NNW 1017,6 15
20.02.2018 14:00:00 4,5 -4,2 7 4 NNW 1017,8 10
20.02.2018 13:00:00 3,9 -4,0 7 4 N 1018,1 10
20.02.2018 12:00:00 2,8 -3,7 7 4 N 1018,7 8
20.02.2018 11:00:00 0,8 -3,7 4 2 NW 1019,0 8
20.02.2018 10:00:00 -0,6 -3,2 7 4 NW 1019,0 8
20.02.2018 09:00:00 -1,6 -3,0 4 2 NW 1018,9 9
20.02.2018 08:00:00 -1,8 -3,0 4 2 Z 1018,8 9
20.02.2018 07:00:00 -2,8 -3,8 0 0 N 1018,8 9
20.02.2018 06:00:00 -3,1 -4,3 0 0 N 1018,6 -
20.02.2018 05:00:00 -2,4 -4,0 4 2 N 1018,1 -
20.02.2018 04:00:00 -1,2 -3,1 7 4 N 1018,0 -
20.02.2018 03:00:00 -1,9 -3,5 4 2 N 1018,2 -
20.02.2018 02:00:00 -1,1 -2,9 4 2 NW 1018,2 -
20.02.2018 01:00:00 -0,8 -3,1 4 2 N 1018,3 -
20.02.2018 00:00:00 0,0 -3,1 4 2 NW 1018,1 -
19.02.2018 23:00:00 1,4 -3,0 4 2 N 1018,2 -
19.02.2018 22:00:00 2,0 -3,2 7 4 N 1018,4 -
19.02.2018 21:00:00 2,2 -2,6 4 2 Z 1018,7 14
19.02.2018 20:00:00 2,2 -2,5 4 2 N 1018,6 12

tt = temperatuur
td = dauwpunt
ff = windsnelheid
dd = windrichting
ppp = luchtdruk
vv = zicht

Weerstations in de omgeving